,,,PA_Meas_PMT16A,,PR_Meas_QMR101_102,,RH_Meas_QMH101,,SR_Meas_QMS101,,TA_Meas_QMH101,,GenWind,,GenWind,
date,time,status,PA,status,PR,status,RH,status,SR,status,TA,status,DirAvg,status,SpdAvg,
2009-02-13, 00:00:04,VALID,999.456,VALID,0,VALID,95.0727,VALID,0,VALID,23.3518,VALID,233,VALID,0.953906,
2009-02-13, 00:01:04,VALID,999.417,VALID,0,VALID,95.0269,VALID,0,VALID,23.3518,VALID,234,VALID,0.723047,
2009-02-13, 00:02:04,VALID,999.411,VALID,0,VALID,95.0193,VALID,0,VALID,23.3713,VALID,205,VALID,1.22422,
2009-02-13, 00:03:04,VALID,999.358,VALID,0,VALID,94.8362,VALID,0,VALID,23.3908,VALID,281,VALID,1.07578,
2009-02-13, 00:04:04,VALID,999.374,VALID,0,VALID,94.8133,VALID,0,VALID,23.4298,VALID,225,VALID,0.801562,
2009-02-13, 00:05:04,VALID,999.309,VALID,0,VALID,94.7751,VALID,0,VALID,23.4298,VALID,200,VALID,0.744141,
2009-02-13, 00:06:04,VALID,999.295,VALID,0,VALID,94.7141,VALID,0,VALID,23.4316,VALID,223,VALID,0.775,
2009-02-13, 00:07:04,VALID,999.305,VALID,0,VALID,94.676,VALID,0,VALID,23.4103,VALID,294,VALID,1.7332,
2009-02-13, 00:08:04,VALID,999.304,VALID,0,VALID,94.6988,VALID,0,VALID,23.4298,VALID,244,VALID,1.05781,
2009-02-13, 00:09:04,VALID,999.323,VALID,0,VALID,94.6836,VALID,0,VALID,23.4298,VALID,236,VALID,0.947266,
2009-02-13, 00:10:04,VALID,999.293,VALID,0,VALID,94.6912,VALID,0,VALID,23.4706,VALID,262,VALID,0.961719,
2009-02-13, 00:11:04,VALID,999.265,VALID,0,VALID,94.7217,VALID,0,VALID,23.4298,VALID,247,VALID,0.839063,
2009-02-13, 00:12:04,VALID,999.237,VALID,0,VALID,94.6836,VALID,0,VALID,23.4298,VALID,236,VALID,1.575,
2009-02-13, 00:13:04,VALID,999.213,VALID,0,VALID,94.6607,VALID,0,VALID,23.4493,VALID,213,VALID,2.26016,
2009-02-13, 00:14:04,VALID,999.191,VALID,0,VALID,94.6836,VALID,0,VALID,23.4688,VALID,224,VALID,1.02969,
2009-02-13, 00:15:04,VALID,999.23,VALID,0,VALID,94.6607,VALID,0,VALID,23.4884,VALID,222,VALID,1.61953,
2009-02-13, 00:16:04,VALID,999.207,VALID,0.5,VALID,94.6454,VALID,0,VALID,23.4884,VALID,240,VALID,1.06016,
2009-02-13, 00:17:04,VALID,999.153,VALID,0,VALID,94.6836,VALID,0,VALID,23.5097,VALID,239,VALID,1.28281,
2009-02-13, 00:18:04,VALID,999.153,VALID,0,VALID,94.676,VALID,0,VALID,23.4884,VALID,232,VALID,2.05234,
2009-02-13, 00:19:04,VALID,999.121,VALID,0,VALID,94.6378,VALID,0,VALID,23.5079,VALID,239,VALID,2.5375,
2009-02-13, 00:20:04,VALID,999.109,VALID,0,VALID,94.6454,VALID,0,VALID,23.5469,VALID,232,VALID,1.44883,
2009-02-13, 00:21:04,VALID,999.068,VALID,0,VALID,94.6988,VALID,0,VALID,23.5664,VALID,218,VALID,1.86875,
2009-02-13, 00:22:04,VALID,999.068,VALID,0,VALID,94.6912,VALID,0,VALID,23.5859,VALID,226,VALID,1.81328,
2009-02-13, 00:23:04,VALID,999.022,VALID,0,VALID,94.6454,VALID,0,VALID,23.6054,VALID,220,VALID,1.84375,
2009-02-13, 00:24:04,VALID,999.005,VALID,0,VALID,94.6912,VALID,0,VALID,23.625,VALID,254,VALID,1.27148,
2009-02-13, 00:25:04,VALID,998.975,VALID,0.5,VALID,94.7141,VALID,0,VALID,23.6445,VALID,224,VALID,1.08594,
2009-02-13, 00:26:04,VALID,998.948,VALID,0,VALID,94.7294,VALID,0,VALID,23.6463,VALID,259,VALID,1.66211,
2009-02-13, 00:27:04,VALID,998.91,VALID,0,VALID,94.7675,VALID,0,VALID,23.6658,VALID,216,VALID,1.39102,
2009-02-13, 00:28:04,VALID,998.893,VALID,0,VALID,94.7904,VALID,0,VALID,23.6445,VALID,256,VALID,2.33867,
2009-02-13, 00:29:04,VALID,998.848,VALID,0,VALID,94.8133,VALID,0,VALID,23.6445,VALID,274,VALID,1.26719,
2009-02-13, 00:30:04,VALID,998.832,VALID,0,VALID,94.8514,VALID,0,VALID,23.6445,VALID,231,VALID,1.16172,
2009-02-13, 00:31:04,VALID,998.82,VALID,0,VALID,94.9048,VALID,0,VALID,23.664,VALID,236,VALID,0.742578,
2009-02-13, 00:32:04,VALID,998.82,VALID,0,VALID,94.9506,VALID,0,VALID,23.6622,VALID,253,VALID,2.02852,
2009-02-13, 00:33:04,VALID,998.814,VALID,0.5,VALID,94.9964,VALID,0,VALID,23.7048,VALID,248,VALID,1.34336,
2009-02-13, 00:34:04,VALID,998.802,VALID,0,VALID,94.9964,VALID,0,VALID,23.6835,VALID,237,VALID,1.0793,
2009-02-13, 00:35:04,VALID,998.779,VALID,0,VALID,95.0727,VALID,0,VALID,23.703,VALID,222,VALID,1.50977,
2009-02-13, 00:36:04,VALID,998.74,VALID,0,VALID,95.0956,VALID,0,VALID,23.703,VALID,254,VALID,0.900781,
2009-02-13, 00:37:04,VALID,998.758,VALID,0,VALID,95.1337,VALID,0,VALID,23.703,VALID,237,VALID,0.603906,
2009-02-13, 00:38:04,VALID,998.723,VALID,0,VALID,95.1795,VALID,0,VALID,23.703,VALID,225,VALID,0.687891,
2009-02-13, 00:39:04,VALID,998.735,VALID,0,VALID,95.1948,VALID,0,VALID,23.703,VALID,220,VALID,0.43125,
2009-02-13, 00:40:04,VALID,998.727,VALID,0,VALID,95.1948,VALID,0,VALID,23.703,VALID,221,VALID,0.243359,
2009-02-13, 00:41:04,VALID,998.719,VALID,0,VALID,95.2253,VALID,0,VALID,23.7243,VALID,302,VALID,0.542188,
2009-02-13, 00:42:04,VALID,998.721,VALID,0,VALID,95.2558,VALID,0,VALID,23.703,VALID,299,VALID,0.163281,
2009-02-13, 00:43:04,VALID,998.747,VALID,0,VALID,95.2787,VALID,0,VALID,23.703,VALID,278,VALID,0.212891,
2009-02-13, 00:44:04,VALID,998.761,VALID,0,VALID,95.3016,VALID,0,VALID,23.703,VALID,278,VALID,0.426562,
2009-02-13, 00:45:04,VALID,998.756,VALID,0,VALID,95.3245,VALID,0,VALID,23.703,VALID,278,VALID,0.368359,
2009-02-13, 00:46:04,VALID,998.771,VALID,0.5,VALID,95.3703,VALID,0,VALID,23.6835,VALID,278,VALID,0.225391,
2009-02-13, 00:47:04,VALID,998.778,VALID,0,VALID,95.3855,VALID,0,VALID,23.6835,VALID,278,VALID,0.139062,
2009-02-13, 00:48:04,VALID,998.809,VALID,0,VALID,95.4313,VALID,0,VALID,23.703,VALID,282,VALID,0.666797,
2009-02-13, 00:49:04,VALID,998.794,VALID,0,VALID,95.4465,VALID,0,VALID,23.7225,VALID,285,VALID,0.108203,
2009-02-13, 00:50:04,VALID,998.808,VALID,0,VALID,95.4694,VALID,0,VALID,23.742,VALID,206,VALID,0.893359,
2009-02-13, 00:51:04,VALID,998.8,VALID,0,VALID,95.4694,VALID,0,VALID,23.742,VALID,233,VALID,0.244922,
2009-02-13, 00:52:04,VALID,998.789,VALID,0,VALID,95.5076,VALID,0,VALID,23.7616,VALID,276,VALID,0.422266,
2009-02-13, 00:53:04,VALID,998.775,VALID,0,VALID,95.5076,VALID,0,VALID,23.7811,VALID,248,VALID,0.586328,
2009-02-13, 00:54:04,VALID,998.773,VALID,0,VALID,95.5457,VALID,0,VALID,23.8006,VALID,241,VALID,0.45625,
2009-02-13, 00:55:04,VALID,998.747,VALID,0,VALID,95.5534,VALID,0,VALID,23.8201,VALID,274,VALID,0.592969,
2009-02-13, 00:56:04,VALID,998.719,VALID,0,VALID,95.5457,VALID,0,VALID,23.8396,VALID,275,VALID,0.723828,
2009-02-13, 00:57:04,VALID,998.692,VALID,0,VALID,95.5762,VALID,0,VALID,23.8591,VALID,286,VALID,0.810938,
2009-02-13, 00:58:04,VALID,998.655,VALID,0,VALID,95.561,VALID,0,VALID,23.8591,VALID,283,VALID,0.547656,
2009-02-13, 00:59:04,VALID,998.606,VALID,0,VALID,95.5686,VALID,0,VALID,23.8786,VALID,236,VALID,1.04297,
2009-02-13, 01:00:04,VALID,998.579,VALID,0,VALID,95.5839,VALID,0,VALID,23.8982,VALID,274,VALID,1.03672,
2009-02-13, 01:01:04,VALID,998.531,VALID,0,VALID,95.5839,VALID,0,VALID,23.9177,VALID,225,VALID,0.970703,
2009-02-13, 01:02:04,VALID,998.515,VALID,0,VALID,95.5991,VALID,0,VALID,23.9372,VALID,237,VALID,1.55117,
2009-02-13, 01:03:04,VALID,998.555,VALID,0,VALID,95.5915,VALID,0,VALID,23.9762,VALID,254,VALID,1.11172,
2009-02-13, 01:04:04,VALID,998.508,VALID,0,VALID,95.5915,VALID,0,VALID,23.9957,VALID,248,VALID,0.396094,
2009-02-13, 01:05:04,VALID,998.482,VALID,0,VALID,95.5991,VALID,0,VALID,23.9957,VALID,260,VALID,0.790234,
2009-02-13, 01:06:04,VALID,998.484,VALID,0,VALID,95.5839,VALID,0,VALID,23.9957,VALID,259,VALID,1.01563,
2009-02-13, 01:07:04,VALID,998.51,VALID,0,VALID,95.5762,VALID,0,VALID,24.0348,VALID,251,VALID,0.778906,
2009-02-13, 01:08:04,VALID,998.459,VALID,0,VALID,95.5762,VALID,0,VALID,24.0543,VALID,245,VALID,1.11172,
2009-02-13, 01:09:04,VALID,998.479,VALID,0,VALID,95.561,VALID,0,VALID,24.0543,VALID,255,VALID,1.0332,
2009-02-13, 01:10:04,VALID,998.488,VALID,0,VALID,95.5762,VALID,0,VALID,24.0543,VALID,239,VALID,1.01758,
2009-02-13, 01:11:04,VALID,998.451,VALID,0,VALID,95.5534,VALID,0,VALID,24.0738,VALID,235,VALID,0.939062,
2009-02-13, 01:12:04,VALID,998.422,VALID,0,VALID,95.5686,VALID,0,VALID,24.0525,VALID,210,VALID,1.2332,
2009-02-13, 01:13:04,VALID,998.402,VALID,0,VALID,95.5457,VALID,0,VALID,24.0933,VALID,216,VALID,1.13984,
2009-02-13, 01:14:04,VALID,998.359,VALID,0,VALID,95.561,VALID,0,VALID,24.0933,VALID,219,VALID,1.34961,
2009-02-13, 01:15:04,VALID,998.386,VALID,0,VALID,95.5534,VALID,0,VALID,24.0933,VALID,221,VALID,1.24688,
2009-02-13, 01:16:04,VALID,998.393,VALID,0,VALID,95.5305,VALID,0,VALID,24.0933,VALID,258,VALID,0.874219,
2009-02-13, 01:17:04,VALID,998.345,VALID,0,VALID,95.5305,VALID,0,VALID,24.0933,VALID,242,VALID,1.25117,
2009-02-13, 01:18:04,VALID,998.3,VALID,0,VALID,95.5228,VALID,0,VALID,24.0933,VALID,239,VALID,0.888281,
2009-02-13, 01:19:04,VALID,998.254,VALID,0,VALID,95.5228,VALID,0,VALID,24.1128,VALID,279,VALID,1.07617,
2009-02-13, 01:20:04,VALID,998.32,VALID,0,VALID,95.5305,VALID,0,VALID,24.1342,VALID,239,VALID,1.37422,
2009-02-13, 01:21:04,VALID,998.378,VALID,1.5,VALID,95.4923,VALID,0,VALID,24.1128,VALID,254,VALID,2.30938,
2009-02-13, 01:22:04,VALID,998.27,VALID,2.5,VALID,95.5152,VALID,0,VALID,24.0933,VALID,259,VALID,0.26875,
2009-02-13, 01:23:04,VALID,998.157,VALID,1,VALID,95.5,VALID,0,VALID,24.1147,VALID,243,VALID,0.312891,
2009-02-13, 01:24:04,VALID,998.209,VALID,0.5,VALID,95.5305,VALID,0,VALID,24.0951,VALID,241,VALID,1.23438,
2009-02-13, 01:25:04,VALID,998.174,VALID,0,VALID,95.5305,VALID,0,VALID,24.0543,VALID,294,VALID,1.82813,
2009-02-13, 01:26:04,VALID,998.233,VALID,0,VALID,95.561,VALID,0,VALID,24.0738,VALID,261,VALID,2.21406,
2009-02-13, 01:27:04,VALID,998.227,VALID,0,VALID,95.6068,VALID,0,VALID,24.1147,VALID,266,VALID,2.33477,
2009-02-13, 01:28:04,VALID,998.231,VALID,0,VALID,95.6068,VALID,0,VALID,24.1147,VALID,227,VALID,1.4832,
2009-02-13, 01:29:04,VALID,998.239,VALID,0,VALID,95.622,VALID,0,VALID,24.1342,VALID,225,VALID,0.965234,
2009-02-13, 01:30:04,VALID,998.24,VALID,0,VALID,95.561,VALID,0,VALID,24.0951,VALID,266,VALID,1.54141,
2009-02-13, 01:31:04,VALID,998.245,VALID,0,VALID,95.5534,VALID,0,VALID,24.0738,VALID,228,VALID,2.50664,
2009-02-13, 01:32:04,VALID,998.265,VALID,0,VALID,95.5,VALID,0,VALID,24.0366,VALID,241,VALID,3.42461,
2009-02-13, 01:33:04,VALID,998.278,VALID,0,VALID,95.4771,VALID,0,VALID,24.0561,VALID,258,VALID,2.32617,
2009-02-13, 01:34:04,VALID,998.265,VALID,0,VALID,95.4618,VALID,0,VALID,24.0153,VALID,255,VALID,1.98047,
2009-02-13, 01:35:04,VALID,998.248,VALID,0,VALID,95.355,VALID,0,VALID,23.9762,VALID,251,VALID,2.64727,
2009-02-13, 01:36:04,VALID,998.234,VALID,0,VALID,95.3855,VALID,0,VALID,23.9762,VALID,250,VALID,1.56719,
2009-02-13, 01:37:04,VALID,998.239,VALID,0,VALID,95.3321,VALID,0,VALID,23.9762,VALID,220,VALID,2.35391,
2009-02-13, 01:38:04,VALID,998.254,VALID,0,VALID,95.3168,VALID,0,VALID,23.9976,VALID,251,VALID,2.12148,
2009-02-13, 01:39:04,VALID,998.257,VALID,0,VALID,95.3245,VALID,0,VALID,23.9762,VALID,240,VALID,1.3418,
2009-02-13, 01:40:04,VALID,998.233,VALID,0,VALID,95.3092,VALID,0,VALID,23.978,VALID,243,VALID,1.35078,
2009-02-13, 01:41:04,VALID,998.274,VALID,0,VALID,95.3092,VALID,0,VALID,23.9567,VALID,227,VALID,2.40156,
2009-02-13, 01:42:04,VALID,998.283,VALID,0,VALID,95.294,VALID,0,VALID,23.9372,VALID,238,VALID,1.48047,
2009-02-13, 01:43:04,VALID,998.288,VALID,0,VALID,95.3092,VALID,0,VALID,23.9372,VALID,229,VALID,1.42266,
2009-02-13, 01:44:04,VALID,998.279,VALID,0,VALID,95.3168,VALID,0,VALID,23.9372,VALID,252,VALID,0.697266,
2009-02-13, 01:45:04,VALID,998.288,VALID,0,VALID,95.294,VALID,0,VALID,23.9177,VALID,252,VALID,2.27031,
2009-02-13, 01:46:04,VALID,998.305,VALID,0,VALID,95.3016,VALID,0,VALID,23.939,VALID,255,VALID,1.15234,
2009-02-13, 01:47:04,VALID,998.274,VALID,0,VALID,95.2482,VALID,0,VALID,23.9195,VALID,261,VALID,3.15195,
2009-02-13, 01:48:04,VALID,998.259,VALID,0,VALID,95.21,VALID,0,VALID,23.9195,VALID,270,VALID,1.79805,
2009-02-13, 01:49:04,VALID,998.231,VALID,0,VALID,95.1795,VALID,0,VALID,23.8786,VALID,227,VALID,1.53867,
2009-02-13, 01:50:04,VALID,998.232,VALID,0,VALID,95.1337,VALID,0,VALID,23.8786,VALID,246,VALID,2.16016,
2009-02-13, 01:51:04,VALID,998.229,VALID,0,VALID,95.0498,VALID,0,VALID,23.8183,VALID,249,VALID,2.79375,
2009-02-13, 01:52:04,VALID,998.265,VALID,0,VALID,94.9125,VALID,0,VALID,23.7988,VALID,252,VALID,2.44062,
2009-02-13, 01:53:04,VALID,998.321,VALID,0,VALID,94.882,VALID,0,VALID,23.7988,VALID,243,VALID,1.10156,
2009-02-13, 01:54:04,VALID,998.359,VALID,0,VALID,94.8285,VALID,0,VALID,23.7793,VALID,234,VALID,2.40898,
2009-02-13, 01:55:04,VALID,998.389,VALID,0,VALID,94.6912,VALID,0,VALID,23.7616,VALID,232,VALID,2.17852,
2009-02-13, 01:56:04,VALID,998.369,VALID,0,VALID,94.676,VALID,0,VALID,23.7811,VALID,224,VALID,2.61055,
2009-02-13, 01:57:04,VALID,998.321,VALID,0,VALID,94.5462,VALID,0,VALID,23.7616,VALID,220,VALID,2.81289,
2009-02-13, 01:58:04,VALID,998.395,VALID,0,VALID,94.4852,VALID,0,VALID,23.7616,VALID,232,VALID,3.22969,
2009-02-13, 01:59:04,VALID,998.42,VALID,0,VALID,94.47,VALID,0,VALID,23.7616,VALID,213,VALID,2.09766,
2009-02-13, 02:00:04,VALID,998.446,VALID,0,VALID,94.4013,VALID,0,VALID,23.7012,VALID,240,VALID,3.15742,
2009-02-13, 02:01:04,VALID,998.478,VALID,0,VALID,94.3937,VALID,0,VALID,23.7225,VALID,229,VALID,2.06953,
2009-02-13, 02:02:04,VALID,998.466,VALID,0,VALID,93.9893,VALID,0,VALID,23.6622,VALID,250,VALID,2.84805,
2009-02-13, 02:03:04,VALID,998.473,VALID,0,VALID,94.0122,VALID,0,VALID,23.6427,VALID,221,VALID,2.32383,
2009-02-13, 02:04:04,VALID,998.517,VALID,0,VALID,93.8672,VALID,0,VALID,23.6445,VALID,258,VALID,2.89297,
2009-02-13, 02:05:04,VALID,998.501,VALID,0,VALID,93.9588,VALID,0,VALID,23.6232,VALID,245,VALID,2.66719,
2009-02-13, 02:06:04,VALID,998.492,VALID,0,VALID,93.852,VALID,0,VALID,23.6036,VALID,231,VALID,3.15586,
2009-02-13, 02:07:04,VALID,998.544,VALID,0,VALID,93.7604,VALID,0,VALID,23.625,VALID,243,VALID,2.39219,
2009-02-13, 02:08:04,VALID,998.607,VALID,0,VALID,93.9283,VALID,0,VALID,23.6232,VALID,250,VALID,1.95859,
2009-02-13, 02:09:04,VALID,998.593,VALID,0,VALID,94.1266,VALID,0,VALID,23.6036,VALID,243,VALID,1.98086,
2009-02-13, 02:10:04,VALID,998.553,VALID,0,VALID,94.1877,VALID,0,VALID,23.6232,VALID,247,VALID,2.05312,
2009-02-13, 02:11:04,VALID,998.535,VALID,0,VALID,94.1571,VALID,0,VALID,23.6232,VALID,259,VALID,2.33437,
2009-02-13, 02:12:04,VALID,998.512,VALID,0,VALID,94.2411,VALID,0,VALID,23.6232,VALID,246,VALID,1.93203,
2009-02-13, 02:13:04,VALID,998.497,VALID,0,VALID,94.3708,VALID,0,VALID,23.625,VALID,241,VALID,0.695703,
2009-02-13, 02:14:04,VALID,998.531,VALID,0,VALID,94.4776,VALID,0,VALID,23.6036,VALID,240,VALID,1.26172,
2009-02-13, 02:15:04,VALID,998.538,VALID,0,VALID,94.4852,VALID,0,VALID,23.5841,VALID,270,VALID,2.18242,
2009-02-13, 02:16:04,VALID,998.5,VALID,0,VALID,94.5234,VALID,0,VALID,23.6054,VALID,222,VALID,1.34492,
2009-02-13, 02:17:04,VALID,998.523,VALID,0,VALID,94.6073,VALID,0,VALID,23.5841,VALID,242,VALID,0.628906,
2009-02-13, 02:18:04,VALID,998.516,VALID,0,VALID,94.6302,VALID,0,VALID,23.5646,VALID,214,VALID,1.3375,
2009-02-13, 02:19:04,VALID,998.545,VALID,0,VALID,94.5234,VALID,0,VALID,23.5841,VALID,236,VALID,1.94766,
2009-02-13, 02:20:04,VALID,998.554,VALID,0,VALID,94.4547,VALID,0,VALID,23.5841,VALID,246,VALID,2.0332,
2009-02-13, 02:21:04,VALID,998.57,VALID,0,VALID,94.3479,VALID,0.112286,VALID,23.6036,VALID,240,VALID,1.84492,
2009-02-13, 02:22:04,VALID,998.596,VALID,0,VALID,94.3708,VALID,0.112286,VALID,23.6036,VALID,230,VALID,1.25312,
2009-02-13, 02:23:04,VALID,998.587,VALID,0,VALID,94.4623,VALID,0,VALID,23.5841,VALID,257,VALID,0.879687,
2009-02-13, 02:24:04,VALID,998.591,VALID,0,VALID,94.4089,VALID,0,VALID,23.5646,VALID,257,VALID,1.58477,
2009-02-13, 02:25:04,VALID,998.64,VALID,0,VALID,94.386,VALID,0,VALID,23.5646,VALID,230,VALID,1.73828,
2009-02-13, 02:26:04,VALID,998.621,VALID,0,VALID,94.3097,VALID,0,VALID,23.5841,VALID,244,VALID,1.075,
2009-02-13, 02:27:04,VALID,998.647,VALID,0,VALID,94.4165,VALID,0,VALID,23.5841,VALID,261,VALID,1.03945,
2009-02-13, 02:28:04,VALID,998.704,VALID,0,VALID,94.386,VALID,0.112286,VALID,23.5646,VALID,253,VALID,1.70313,
2009-02-13, 02:29:04,VALID,998.724,VALID,0,VALID,94.3937,VALID,0,VALID,23.5646,VALID,230,VALID,1.48281,
2009-02-13, 02:30:04,VALID,998.745,VALID,0,VALID,94.3631,VALID,0.112286,VALID,23.5841,VALID,229,VALID,1.32656,
2009-02-13, 02:31:04,VALID,998.783,VALID,0,VALID,94.3479,VALID,0,VALID,23.6036,VALID,244,VALID,1.50898,
2009-02-13, 02:32:04,VALID,998.735,VALID,0,VALID,94.1648,VALID,0.112286,VALID,23.6036,VALID,223,VALID,1.67109,
2009-02-13, 02:33:04,VALID,998.763,VALID,0,VALID,94.0961,VALID,0,VALID,23.6036,VALID,253,VALID,2.08633,
2009-02-13, 02:34:04,VALID,998.783,VALID,0,VALID,94.18,VALID,0.112286,VALID,23.6036,VALID,225,VALID,1.53008,
2009-02-13, 02:35:04,VALID,998.746,VALID,0,VALID,94.1953,VALID,0.112286,VALID,23.6036,VALID,221,VALID,1.11367,
2009-02-13, 02:36:04,VALID,998.789,VALID,0,VALID,94.2868,VALID,0,VALID,23.6036,VALID,202,VALID,1.3457,
2009-02-13, 02:37:05,VALID,998.788,VALID,0,VALID,94.2334,VALID,0.112286,VALID,23.5841,VALID,220,VALID,1.65937,
2009-02-13, 02:38:05,VALID,998.775,VALID,0,VALID,94.1495,VALID,0.112286,VALID,23.6036,VALID,224,VALID,2.07891,
2009-02-13, 02:39:05,VALID,998.753,VALID,0,VALID,94.0656,VALID,0,VALID,23.6036,VALID,213,VALID,1.63359,
2009-02-13, 02:40:05,VALID,998.767,VALID,0,VALID,94.1724,VALID,0,VALID,23.6232,VALID,241,VALID,0.913672,
2009-02-13, 02:41:05,VALID,998.797,VALID,0,VALID,94.2868,VALID,0,VALID,23.6036,VALID,200,VALID,1.66172,
2009-02-13, 02:42:05,VALID,998.834,VALID,0,VALID,94.2487,VALID,0,VALID,23.6036,VALID,205,VALID,1.75469,
2009-02-13, 02:43:05,VALID,998.795,VALID,0,VALID,94.325,VALID,0.112286,VALID,23.6232,VALID,213,VALID,0.889844,
2009-02-13, 02:44:05,VALID,998.781,VALID,0,VALID,94.3479,VALID,0,VALID,23.6036,VALID,174,VALID,1.05859,
2009-02-13, 02:45:05,VALID,998.803,VALID,0,VALID,94.3937,VALID,0,VALID,23.6036,VALID,181,VALID,1.34141,
2009-02-13, 02:46:05,VALID,998.795,VALID,0,VALID,94.4547,VALID,0.112286,VALID,23.5841,VALID,211,VALID,0.413672,
2009-02-13, 02:47:05,VALID,998.776,VALID,0,VALID,94.5462,VALID,0,VALID,23.5841,VALID,210,VALID,0.261719,
2009-02-13, 02:48:05,VALID,998.772,VALID,0,VALID,94.6454,VALID,0.112286,VALID,23.5646,VALID,210,VALID,0.157031,
2009-02-13, 02:49:05,VALID,998.737,VALID,0,VALID,94.6607,VALID,0.112286,VALID,23.5451,VALID,209,VALID,0.515234,
2009-02-13, 02:50:05,VALID,998.711,VALID,0,VALID,94.6988,VALID,0,VALID,23.5682,VALID,186,VALID,0.448438,
2009-02-13, 02:51:05,VALID,998.741,VALID,0,VALID,94.7446,VALID,0,VALID,23.5274,VALID,199,VALID,0.566016,
2009-02-13, 02:52:05,VALID,998.762,VALID,0,VALID,94.8133,VALID,0,VALID,23.5664,VALID,224,VALID,0.377344,
2009-02-13, 02:53:05,VALID,998.761,VALID,0,VALID,94.882,VALID,0,VALID,23.5274,VALID,251,VALID,0.172266,
2009-02-13, 02:54:05,VALID,998.739,VALID,0,VALID,94.9048,VALID,0,VALID,23.5469,VALID,306,VALID,0.337109,
2009-02-13, 02:55:05,VALID,998.741,VALID,0,VALID,94.8972,VALID,0,VALID,23.5079,VALID,328,VALID,0.705469,
2009-02-13, 02:56:05,VALID,998.827,VALID,0,VALID,94.9506,VALID,0,VALID,23.5079,VALID,303,VALID,1.2125,
2009-02-13, 02:57:05,VALID,998.785,VALID,0,VALID,94.9125,VALID,0,VALID,23.5469,VALID,355,VALID,1.13437,
2009-02-13, 02:58:05,VALID,998.787,VALID,0,VALID,94.9659,VALID,0,VALID,23.5469,VALID,358,VALID,0.826953,
2009-02-13, 02:59:05,VALID,998.837,VALID,0,VALID,95.0117,VALID,0,VALID,23.5664,VALID,343,VALID,1.04336,
2009-02-13, 03:00:05,VALID,998.873,VALID,0,VALID,94.9735,VALID,0,VALID,23.5664,VALID,343,VALID,1.0375,
2009-02-13, 03:01:05,VALID,998.984,VALID,0,VALID,95.0117,VALID,0,VALID,23.5859,VALID,293,VALID,1.09844,
2009-02-13, 03:02:05,VALID,999.194,VALID,0,VALID,95.004,VALID,0,VALID,23.5859,VALID,265,VALID,1.33516,
2009-02-13, 03:03:05,VALID,999.339,VALID,0,VALID,94.9888,VALID,0,VALID,23.5859,VALID,284,VALID,1.79805,
2009-02-13, 03:04:05,VALID,999.364,VALID,0,VALID,94.8438,VALID,0,VALID,23.6054,VALID,215,VALID,4.18828,
2009-02-13, 03:05:05,VALID,999.429,VALID,0,VALID,92.4023,VALID,0,VALID,23.389,VALID,231,VALID,3.48164,
2009-02-13, 03:06:05,VALID,999.444,VALID,0,VALID,91.8148,VALID,0.112286,VALID,23.311,VALID,225,VALID,3.72656,
2009-02-13, 03:07:05,VALID,999.487,VALID,0,VALID,91.9522,VALID,0,VALID,23.1939,VALID,257,VALID,2.58125,
2009-02-13, 03:08:05,VALID,999.334,VALID,0,VALID,92.1353,VALID,0.112286,VALID,23.0786,VALID,233,VALID,2.53047,
2009-02-13, 03:09:05,VALID,999.43,VALID,0.5,VALID,92.2726,VALID,0.112286,VALID,22.9208,VALID,231,VALID,3.62617,
2009-02-13, 03:10:05,VALID,999.601,VALID,0.5,VALID,92.6388,VALID,0.112286,VALID,22.7842,VALID,258,VALID,3.88984,
2009-02-13, 03:11:05,VALID,999.474,VALID,0.5,VALID,93.089,VALID,0,VALID,22.6282,VALID,240,VALID,3.08203,
2009-02-13, 03:12:05,VALID,999.581,VALID,0.5,VALID,93.5086,VALID,0,VALID,22.5111,VALID,234,VALID,3.80312,
2009-02-13, 03:13:05,VALID,999.57,VALID,1,VALID,94.0274,VALID,0,VALID,22.4136,VALID,264,VALID,4.0375,
2009-02-13, 03:14:05,VALID,999.501,VALID,1,VALID,94.4013,VALID,0,VALID,22.3551,VALID,242,VALID,2.59023,
2009-02-13, 03:15:05,VALID,999.502,VALID,0.5,VALID,94.4928,VALID,0,VALID,22.2966,VALID,247,VALID,3.83242,
2009-02-13, 03:16:05,VALID,999.508,VALID,0.5,VALID,94.737,VALID,0.112286,VALID,22.2754,VALID,238,VALID,4.49141,
2009-02-13, 03:17:05,VALID,999.422,VALID,0,VALID,94.9201,VALID,0.112286,VALID,22.2771,VALID,243,VALID,4.3125,
2009-02-13, 03:18:05,VALID,999.5,VALID,0.5,VALID,94.9659,VALID,0.112286,VALID,22.2966,VALID,267,VALID,4.07109,
2009-02-13, 03:19:05,VALID,999.5,VALID,0,VALID,95.0498,VALID,0,VALID,22.2966,VALID,271,VALID,2.86836,
2009-02-13, 03:20:05,VALID,999.438,VALID,0.5,VALID,95.1643,VALID,0.112286,VALID,22.3373,VALID,224,VALID,2.78516,
2009-02-13, 03:21:05,VALID,999.385,VALID,0,VALID,95.2634,VALID,0.112286,VALID,22.3551,VALID,301,VALID,3.93125,
2009-02-13, 03:22:05,VALID,999.527,VALID,0.5,VALID,95.3245,VALID,0,VALID,22.3941,VALID,255,VALID,2.59453,
2009-02-13, 03:23:05,VALID,999.41,VALID,0,VALID,95.2787,VALID,0,VALID,22.4136,VALID,234,VALID,4.20313,
2009-02-13, 03:24:05,VALID,999.475,VALID,0,VALID,95.2634,VALID,0.112286,VALID,22.4526,VALID,260,VALID,4.67266,
2009-02-13, 03:25:05,VALID,999.446,VALID,0,VALID,95.2405,VALID,0.112286,VALID,22.4721,VALID,272,VALID,3.35508,
2009-02-13, 03:26:05,VALID,999.484,VALID,0.5,VALID,95.2634,VALID,0.112286,VALID,22.5111,VALID,254,VALID,3.51992,
2009-02-13, 03:27:05,VALID,999.486,VALID,0,VALID,95.2558,VALID,0.112286,VALID,22.5306,VALID,250,VALID,2.74336,
2009-02-13, 03:28:05,VALID,999.512,VALID,0,VALID,95.294,VALID,0.112286,VALID,22.5501,VALID,276,VALID,2.22305,
2009-02-13, 03:29:05,VALID,999.441,VALID,0,VALID,95.3168,VALID,0.112286,VALID,22.5501,VALID,264,VALID,2.68516,
2009-02-13, 03:30:05,VALID,999.465,VALID,0,VALID,95.3321,VALID,0.112286,VALID,22.5696,VALID,245,VALID,1.72656,
2009-02-13, 03:31:05,VALID,999.493,VALID,0,VALID,95.3779,VALID,0.112286,VALID,22.6104,VALID,257,VALID,2.97148,
2009-02-13, 03:32:05,VALID,999.51,VALID,0,VALID,95.3703,VALID,0.112286,VALID,22.6087,VALID,276,VALID,1.775,
2009-02-13, 03:33:05,VALID,999.434,VALID,0,VALID,95.3779,VALID,0.112286,VALID,22.6282,VALID,222,VALID,1.83047,
2009-02-13, 03:34:05,VALID,999.423,VALID,0,VALID,95.355,VALID,0.112286,VALID,22.6477,VALID,285,VALID,2.51914,
2009-02-13, 03:35:05,VALID,999.45,VALID,0,VALID,95.3931,VALID,0,VALID,22.6689,VALID,216,VALID,1.50352,
2009-02-13, 03:36:05,VALID,999.409,VALID,0,VALID,95.4008,VALID,0,VALID,22.6884,VALID,206,VALID,2.40703,
2009-02-13, 03:37:05,VALID,999.437,VALID,0,VALID,95.3931,VALID,0,VALID,22.7274,VALID,237,VALID,0.634766,
2009-02-13, 03:38:05,VALID,999.471,VALID,0,VALID,95.3931,VALID,0,VALID,22.7469,VALID,227,VALID,1.81484,
2009-02-13, 03:39:05,VALID,999.479,VALID,0,VALID,95.4237,VALID,0,VALID,22.786,VALID,267,VALID,1.91562,
2009-02-13, 03:40:05,VALID,999.469,VALID,0,VALID,95.3779,VALID,0,VALID,22.8072,VALID,221,VALID,1.42227,
2009-02-13, 03:41:05,VALID,999.453,VALID,0,VALID,95.3474,VALID,0,VALID,22.786,VALID,188,VALID,1.5,
2009-02-13, 03:42:05,VALID,999.422,VALID,0,VALID,95.3168,VALID,0,VALID,22.786,VALID,192,VALID,2.13398,
2009-02-13, 03:43:05,VALID,999.382,VALID,0.5,VALID,95.2482,VALID,0,VALID,22.786,VALID,191,VALID,2.25078,